owner,sensor,date,latitude,longitude,sea_surface_height_above_sea_level,qcFlag 
TCOON,ioos:station:TCOON:013:1,2019-06-01T00:24:00Z,27.4847,-97.3181,0.888,11111222 
TCOON,ioos:station:TCOON:013:1,2019-06-01T01:24:00Z,27.4847,-97.3181,0.888,11111222 
TCOON,ioos:station:TCOON:013:1,2019-06-01T02:24:00Z,27.4847,-97.3181,0.882,11111222 
TCOON,ioos:station:TCOON:013:1,2019-06-01T03:24:00Z,27.4847,-97.3181,0.877,11111222 
TCOON,ioos:station:TCOON:013:1,2019-06-01T04:24:00Z,27.4847,-97.3181,0.876,11111222 
TCOON,ioos:station:TCOON:013:1,2019-06-01T05:24:00Z,27.4847,-97.3181,0.867,11111222 
TCOON,ioos:station:TCOON:013:1,2019-06-01T06:24:00Z,27.4847,-97.3181,0.864,11111222 
TCOON,ioos:station:TCOON:013:1,2019-06-01T07:24:00Z,27.4847,-97.3181,0.864,11111222 
TCOON,ioos:station:TCOON:013:1,2019-06-01T08:24:00Z,27.4847,-97.3181,0.868,11111222 
TCOON,ioos:station:TCOON:013:1,2019-06-01T09:24:00Z,27.4847,-97.3181,0.867,11111222 
TCOON,ioos:station:TCOON:013:1,2019-06-01T10:24:00Z,27.4847,-97.3181,0.872,11111222 
TCOON,ioos:station:TCOON:013:1,2019-06-01T11:24:00Z,27.4847,-97.3181,0.88,11111222 
TCOON,ioos:station:TCOON:013:1,2019-06-01T12:24:00Z,27.4847,-97.3181,0.891,11111222 
TCOON,ioos:station:TCOON:013:1,2019-06-01T13:24:00Z,27.4847,-97.3181,0.906,11111222 
TCOON,ioos:station:TCOON:013:1,2019-06-01T14:24:00Z,27.4847,-97.3181,0.914,11111222 
TCOON,ioos:station:TCOON:013:1,2019-06-01T15:24:00Z,27.4847,-97.3181,0.919,11111222 
TCOON,ioos:station:TCOON:013:1,2019-06-01T16:24:00Z,27.4847,-97.3181,0.924,11111222 
TCOON,ioos:station:TCOON:013:1,2019-06-01T17:24:00Z,27.4847,-97.3181,0.925,11111222 
TCOON,ioos:station:TCOON:013:1,2019-06-01T18:24:00Z,27.4847,-97.3181,0.925,11111222 
TCOON,ioos:station:TCOON:013:1,2019-06-01T19:24:00Z,27.4847,-97.3181,0.924,11111222 
TCOON,ioos:station:TCOON:013:1,2019-06-01T20:24:00Z,27.4847,-97.3181,0.921,11111222 
TCOON,ioos:station:TCOON:013:1,2019-06-01T21:24:00Z,27.4847,-97.3181,0.92,11111222 
TCOON,ioos:station:TCOON:013:1,2019-06-01T22:24:00Z,27.4847,-97.3181,0.918,11111222 
TCOON,ioos:station:TCOON:013:1,2019-06-01T23:24:00Z,27.4847,-97.3181,0.916,11111222 
TCOON,ioos:station:TCOON:013:1,2019-06-02T00:24:00Z,27.4847,-97.3181,0.912,11111222 
TCOON,ioos:station:TCOON:013:1,2019-06-02T01:24:00Z,27.4847,-97.3181,0.906,11111222 
TCOON,ioos:station:TCOON:013:1,2019-06-02T02:24:00Z,27.4847,-97.3181,0.9,11111222 
TCOON,ioos:station:TCOON:013:1,2019-06-02T03:24:00Z,27.4847,-97.3181,0.892,11111222 
TCOON,ioos:station:TCOON:013:1,2019-06-02T04:24:00Z,27.4847,-97.3181,0.889,11111222 
TCOON,ioos:station:TCOON:013:1,2019-06-02T05:24:00Z,27.4847,-97.3181,0.887,11111222 
TCOON,ioos:station:TCOON:013:1,2019-06-02T06:24:00Z,27.4847,-97.3181,0.886,11111222 
TCOON,ioos:station:TCOON:013:1,2019-06-02T07:24:00Z,27.4847,-97.3181,0.881,11111222 
TCOON,ioos:station:TCOON:013:1,2019-06-02T08:24:00Z,27.4847,-97.3181,0.88,11111222 
TCOON,ioos:station:TCOON:013:1,2019-06-02T09:24:00Z,27.4847,-97.3181,0.882,11111222 
TCOON,ioos:station:TCOON:013:1,2019-06-02T10:24:00Z,27.4847,-97.3181,0.883,11111222 
TCOON,ioos:station:TCOON:013:1,2019-06-02T11:24:00Z,27.4847,-97.3181,0.883,11111222 
TCOON,ioos:station:TCOON:013:1,2019-06-02T12:24:00Z,27.4847,-97.3181,0.889,11111222 
TCOON,ioos:station:TCOON:013:1,2019-06-02T13:24:00Z,27.4847,-97.3181,0.894,11111222 
TCOON,ioos:station:TCOON:013:1,2019-06-02T14:24:00Z,27.4847,-97.3181,0.909,11111222 
TCOON,ioos:station:TCOON:013:1,2019-06-02T15:24:00Z,27.4847,-97.3181,0.916,11111222 
TCOON,ioos:station:TCOON:013:1,2019-06-02T16:24:00Z,27.4847,-97.3181,0.923,11111222 
TCOON,ioos:station:TCOON:013:1,2019-06-02T17:30:00Z,27.4847,-97.3181,0.926,11111222 
TCOON,ioos:station:TCOON:013:1,2019-06-02T18:24:00Z,27.4847,-97.3181,0.926,11111222 
TCOON,ioos:station:TCOON:013:1,2019-06-02T19:30:00Z,27.4847,-97.3181,0.928,11111222 
TCOON,ioos:station:TCOON:013:1,2019-06-02T20:30:00Z,27.4847,-97.3181,0.924,11111222 
TCOON,ioos:station:TCOON:013:1,2019-06-02T21:24:00Z,27.4847,-97.3181,0.918,11111222 
TCOON,ioos:station:TCOON:013:1,2019-06-02T22:30:00Z,27.4847,-97.3181,0.923,11111222 
TCOON,ioos:station:TCOON:013:1,2019-06-02T23:24:00Z,27.4847,-97.3181,0.92,11111222 
TCOON,ioos:station:TCOON:013:1,2019-06-03T00:24:00Z,27.4847,-97.3181,0.917,11111222 
TCOON,ioos:station:TCOON:013:1,2019-06-03T01:24:00Z,27.4847,-97.3181,0.913,11111222 
TCOON,ioos:station:TCOON:013:1,2019-06-03T02:24:00Z,27.4847,-97.3181,0.911,11111222 
TCOON,ioos:station:TCOON:013:1,2019-06-03T03:24:00Z,27.4847,-97.3181,0.907,11111222 
TCOON,ioos:station:TCOON:013:1,2019-06-03T04:24:00Z,27.4847,-97.3181,0.903,11111222 
TCOON,ioos:station:TCOON:013:1,2019-06-03T05:24:00Z,27.4847,-97.3181,0.901,11111222 
TCOON,ioos:station:TCOON:013:1,2019-06-03T06:24:00Z,27.4847,-97.3181,0.9,11111222 
TCOON,ioos:station:TCOON:013:1,2019-06-03T07:24:00Z,27.4847,-97.3181,0.896,11111222 
TCOON,ioos:station:TCOON:013:1,2019-06-03T08:24:00Z,27.4847,-97.3181,0.894,11111222 
TCOON,ioos:station:TCOON:013:1,2019-06-03T09:24:00Z,27.4847,-97.3181,0.894,11111222 
TCOON,ioos:station:TCOON:013:1,2019-06-03T10:24:00Z,27.4847,-97.3181,0.895,11111222 
TCOON,ioos:station:TCOON:013:1,2019-06-03T11:24:00Z,27.4847,-97.3181,0.895,11111222 
TCOON,ioos:station:TCOON:013:1,2019-06-03T12:30:00Z,27.4847,-97.3181,0.896,11111222 
TCOON,ioos:station:TCOON:013:1,2019-06-03T13:30:00Z,27.4847,-97.3181,0.896,11111222 
TCOON,ioos:station:TCOON:013:1,2019-06-03T14:30:00Z,27.4847,-97.3181,0.9,11111222 
TCOON,ioos:station:TCOON:013:1,2019-06-03T15:30:00Z,27.4847,-97.3181,0.911,11111222 
TCOON,ioos:station:TCOON:013:1,2019-06-03T16:30:00Z,27.4847,-97.3181,0.918,11111222 
TCOON,ioos:station:TCOON:013:1,2019-06-03T17:24:00Z,27.4847,-97.3181,0.923,11111222 
TCOON,ioos:station:TCOON:013:1,2019-06-03T18:30:00Z,27.4847,-97.3181,0.923,11111222 
TCOON,ioos:station:TCOON:013:1,2019-06-03T19:30:00Z,27.4847,-97.3181,0.924,11111222 
TCOON,ioos:station:TCOON:013:1,2019-06-03T20:30:00Z,27.4847,-97.3181,0.92,11111222 
TCOON,ioos:station:TCOON:013:1,2019-06-03T21:30:00Z,27.4847,-97.3181,0.895,11111222 
TCOON,ioos:station:TCOON:013:1,2019-06-03T22:30:00Z,27.4847,-97.3181,0.92,11111222 
TCOON,ioos:station:TCOON:013:1,2019-06-03T23:24:00Z,27.4847,-97.3181,0.916,11111222 
TCOON,ioos:station:TCOON:013:1,2019-06-04T00:24:00Z,27.4847,-97.3181,0.911,11111222 
TCOON,ioos:station:TCOON:013:1,2019-06-04T01:24:00Z,27.4847,-97.3181,0.904,11111222 
TCOON,ioos:station:TCOON:013:1,2019-06-04T02:24:00Z,27.4847,-97.3181,0.896,11111222 
TCOON,ioos:station:TCOON:013:1,2019-06-04T03:24:00Z,27.4847,-97.3181,0.891,11111222 
TCOON,ioos:station:TCOON:013:1,2019-06-04T04:24:00Z,27.4847,-97.3181,0.885,11111222 
TCOON,ioos:station:TCOON:013:1,2019-06-04T05:24:00Z,27.4847,-97.3181,0.882,11111222 
TCOON,ioos:station:TCOON:013:1,2019-06-04T06:24:00Z,27.4847,-97.3181,0.876,11111222 
TCOON,ioos:station:TCOON:013:1,2019-06-04T07:24:00Z,27.4847,-97.3181,0.875,11111222 
TCOON,ioos:station:TCOON:013:1,2019-06-04T08:24:00Z,27.4847,-97.3181,0.873,11111222 
TCOON,ioos:station:TCOON:013:1,2019-06-04T09:24:00Z,27.4847,-97.3181,0.874,11111222 
TCOON,ioos:station:TCOON:013:1,2019-06-04T10:30:00Z,27.4847,-97.3181,0.874,11111222 
TCOON,ioos:station:TCOON:013:1,2019-06-04T11:24:00Z,27.4847,-97.3181,0.871,11111222 
TCOON,ioos:station:TCOON:013:1,2019-06-04T12:24:00Z,27.4847,-97.3181,0.873,11111222 
TCOON,ioos:station:TCOON:013:1,2019-06-04T13:24:00Z,27.4847,-97.3181,0.875,11111222 
TCOON,ioos:station:TCOON:013:1,2019-06-04T14:30:00Z,27.4847,-97.3181,0.882,11111222 
TCOON,ioos:station:TCOON:013:1,2019-06-04T15:30:00Z,27.4847,-97.3181,0.89,11111222 
TCOON,ioos:station:TCOON:013:1,2019-06-04T16:30:00Z,27.4847,-97.3181,0.895,11111222 
TCOON,ioos:station:TCOON:013:1,2019-06-04T17:30:00Z,27.4847,-97.3181,0.9,11111222 
TCOON,ioos:station:TCOON:013:1,2019-06-04T18:30:00Z,27.4847,-97.3181,0.9,11111222 
TCOON,ioos:station:TCOON:013:1,2019-06-04T19:30:00Z,27.4847,-97.3181,0.902,11111222 
TCOON,ioos:station:TCOON:013:1,2019-06-04T20:30:00Z,27.4847,-97.3181,0.911,11111222 
TCOON,ioos:station:TCOON:013:1,2019-06-04T21:24:00Z,27.4847,-97.3181,0.926,11111222 
TCOON,ioos:station:TCOON:013:1,2019-06-04T22:24:00Z,27.4847,-97.3181,0.924,11111222 
TCOON,ioos:station:TCOON:013:1,2019-06-04T23:24:00Z,27.4847,-97.3181,0.933,11111222 
TCOON,ioos:station:TCOON:013:1,2019-06-05T00:24:00Z,27.4847,-97.3181,0.939,11111222 
TCOON,ioos:station:TCOON:013:1,2019-06-05T01:24:00Z,27.4847,-97.3181,0.939,11111222 
TCOON,ioos:station:TCOON:013:1,2019-06-05T02:24:00Z,27.4847,-97.3181,0.935,11111222 
TCOON,ioos:station:TCOON:013:1,2019-06-05T03:24:00Z,27.4847,-97.3181,0.929,11111222 
TCOON,ioos:station:TCOON:013:1,2019-06-05T04:24:00Z,27.4847,-97.3181,0.926,11111222 
TCOON,ioos:station:TCOON:013:1,2019-06-05T05:24:00Z,27.4847,-97.3181,0.92,11111222 
TCOON,ioos:station:TCOON:013:1,2019-06-05T06:24:00Z,27.4847,-97.3181,0.919,11111222 
TCOON,ioos:station:TCOON:013:1,2019-06-05T07:24:00Z,27.4847,-97.3181,0.916,11111222 
TCOON,ioos:station:TCOON:013:1,2019-06-05T08:24:00Z,27.4847,-97.3181,0.919,11111222 
TCOON,ioos:station:TCOON:013:1,2019-06-05T09:24:00Z,27.4847,-97.3181,0.924,11111222 
TCOON,ioos:station:TCOON:013:1,2019-06-05T10:24:00Z,27.4847,-97.3181,0.944,11111222 
TCOON,ioos:station:TCOON:013:1,2019-06-05T11:24:00Z,27.4847,-97.3181,0.949,11111222 
TCOON,ioos:station:TCOON:013:1,2019-06-05T12:24:00Z,27.4847,-97.3181,0.967,11111222 
TCOON,ioos:station:TCOON:013:1,2019-06-05T13:30:00Z,27.4847,-97.3181,0.965,11111222 
TCOON,ioos:station:TCOON:013:1,2019-06-05T14:30:00Z,27.4847,-97.3181,0.97,11111222 
TCOON,ioos:station:TCOON:013:1,2019-06-05T15:30:00Z,27.4847,-97.3181,0.975,11111222 
TCOON,ioos:station:TCOON:013:1,2019-06-05T16:30:00Z,27.4847,-97.3181,0.969,11111222 
TCOON,ioos:station:TCOON:013:1,2019-06-05T17:30:00Z,27.4847,-97.3181,0.977,11111222 
TCOON,ioos:station:TCOON:013:1,2019-06-05T18:30:00Z,27.4847,-97.3181,0.985,11111222 
TCOON,ioos:station:TCOON:013:1,2019-06-05T19:30:00Z,27.4847,-97.3181,0.992,11111222 
TCOON,ioos:station:TCOON:013:1,2019-06-05T20:30:00Z,27.4847,-97.3181,0.993,11111222 
TCOON,ioos:station:TCOON:013:1,2019-06-05T21:30:00Z,27.4847,-97.3181,0.994,11111222 
TCOON,ioos:station:TCOON:013:1,2019-06-05T22:30:00Z,27.4847,-97.3181,0.991,11111222 
TCOON,ioos:station:TCOON:013:1,2019-06-05T23:30:00Z,27.4847,-97.3181,0.992,11111222 
TCOON,ioos:station:TCOON:013:1,2019-06-06T00:24:00Z,27.4847,-97.3181,0.985,11111222 
TCOON,ioos:station:TCOON:013:1,2019-06-06T01:24:00Z,27.4847,-97.3181,0.98,11111222 
TCOON,ioos:station:TCOON:013:1,2019-06-06T02:24:00Z,27.4847,-97.3181,0.973,11111222 
TCOON,ioos:station:TCOON:013:1,2019-06-06T03:24:00Z,27.4847,-97.3181,0.973,11111222 
TCOON,ioos:station:TCOON:013:1,2019-06-06T04:24:00Z,27.4847,-97.3181,0.969,11111222 
TCOON,ioos:station:TCOON:013:1,2019-06-06T05:24:00Z,27.4847,-97.3181,0.971,11111222 
TCOON,ioos:station:TCOON:013:1,2019-06-06T06:24:00Z,27.4847,-97.3181,0.967,11111222 
TCOON,ioos:station:TCOON:013:1,2019-06-06T07:24:00Z,27.4847,-97.3181,0.959,11111222 
TCOON,ioos:station:TCOON:013:1,2019-06-06T08:24:00Z,27.4847,-97.3181,0.95,11111222 
TCOON,ioos:station:TCOON:013:1,2019-06-06T09:24:00Z,27.4847,-97.3181,0.944,11111222 
TCOON,ioos:station:TCOON:013:1,2019-06-06T10:24:00Z,27.4847,-97.3181,0.935,11111222 
TCOON,ioos:station:TCOON:013:1,2019-06-06T11:24:00Z,27.4847,-97.3181,0.924,11111222 
TCOON,ioos:station:TCOON:013:1,2019-06-06T12:30:00Z,27.4847,-97.3181,0.913,11111222 
TCOON,ioos:station:TCOON:013:1,2019-06-06T13:24:00Z,27.4847,-97.3181,0.905,11111222 
TCOON,ioos:station:TCOON:013:1,2019-06-06T14:30:00Z,27.4847,-97.3181,0.909,11111222 
TCOON,ioos:station:TCOON:013:1,2019-06-06T15:30:00Z,27.4847,-97.3181,0.905,11111222 
TCOON,ioos:station:TCOON:013:1,2019-06-06T16:30:00Z,27.4847,-97.3181,0.908,11111222 
TCOON,ioos:station:TCOON:013:1,2019-06-06T17:30:00Z,27.4847,-97.3181,0.91,11111222 
TCOON,ioos:station:TCOON:013:1,2019-06-06T18:30:00Z,27.4847,-97.3181,0.912,11111222 
TCOON,ioos:station:TCOON:013:1,2019-06-06T19:30:00Z,27.4847,-97.3181,0.92,11111222 
TCOON,ioos:station:TCOON:013:1,2019-06-06T20:30:00Z,27.4847,-97.3181,0.922,11111222 
TCOON,ioos:station:TCOON:013:1,2019-06-06T21:24:00Z,27.4847,-97.3181,0.926,11111222 
TCOON,ioos:station:TCOON:013:1,2019-06-06T22:24:00Z,27.4847,-97.3181,0.93,11111222 
TCOON,ioos:station:TCOON:013:1,2019-06-06T23:24:00Z,27.4847,-97.3181,0.926,11111222 
TCOON,ioos:station:TCOON:013:1,2019-06-07T00:24:00Z,27.4847,-97.3181,0.928,11111222 
TCOON,ioos:station:TCOON:013:1,2019-06-07T01:24:00Z,27.4847,-97.3181,0.935,11111222 
TCOON,ioos:station:TCOON:013:1,2019-06-07T02:24:00Z,27.4847,-97.3181,0.922,11111222 
TCOON,ioos:station:TCOON:013:1,2019-06-07T03:24:00Z,27.4847,-97.3181,0.921,11111222 
TCOON,ioos:station:TCOON:013:1,2019-06-07T04:24:00Z,27.4847,-97.3181,0.923,11111222 
TCOON,ioos:station:TCOON:013:1,2019-06-07T05:24:00Z,27.4847,-97.3181,0.913,11111222 
TCOON,ioos:station:TCOON:013:1,2019-06-07T06:24:00Z,27.4847,-97.3181,0.908,11111222 
TCOON,ioos:station:TCOON:013:1,2019-06-07T07:24:00Z,27.4847,-97.3181,0.914,11111222 
TCOON,ioos:station:TCOON:013:1,2019-06-07T08:24:00Z,27.4847,-97.3181,0.906,11111222 
TCOON,ioos:station:TCOON:013:1,2019-06-07T09:24:00Z,27.4847,-97.3181,0.904,11111222 
TCOON,ioos:station:TCOON:013:1,2019-06-07T10:24:00Z,27.4847,-97.3181,0.897,11111222 
TCOON,ioos:station:TCOON:013:1,2019-06-07T11:24:00Z,27.4847,-97.3181,0.903,11111222 
TCOON,ioos:station:TCOON:013:1,2019-06-07T12:24:00Z,27.4847,-97.3181,0.901,11111222 
TCOON,ioos:station:TCOON:013:1,2019-06-07T13:30:00Z,27.4847,-97.3181,0.895,11111222 
TCOON,ioos:station:TCOON:013:1,2019-06-07T14:24:00Z,27.4847,-97.3181,0.891,11111222 
TCOON,ioos:station:TCOON:013:1,2019-06-07T15:30:00Z,27.4847,-97.3181,0.887,11111222 
TCOON,ioos:station:TCOON:013:1,2019-06-07T16:30:00Z,27.4847,-97.3181,0.884,11111222 
TCOON,ioos:station:TCOON:013:1,2019-06-07T17:30:00Z,27.4847,-97.3181,0.884,11111222 
TCOON,ioos:station:TCOON:013:1,2019-06-07T18:24:00Z,27.4847,-97.3181,0.885,11111222 
TCOON,ioos:station:TCOON:013:1,2019-06-07T19:30:00Z,27.4847,-97.3181,0.886,11111222 
TCOON,ioos:station:TCOON:013:1,2019-06-07T20:24:00Z,27.4847,-97.3181,0.892,11111222 
TCOON,ioos:station:TCOON:013:1,2019-06-07T21:30:00Z,27.4847,-97.3181,0.9,11111222 
TCOON,ioos:station:TCOON:013:1,2019-06-07T22:24:00Z,27.4847,-97.3181,0.901,11111222 
TCOON,ioos:station:TCOON:013:1,2019-06-07T23:24:00Z,27.4847,-97.3181,0.891,11111222 
TCOON,ioos:station:TCOON:013:1,2019-06-08T00:24:00Z,27.4847,-97.3181,0.893,11111222 
TCOON,ioos:station:TCOON:013:1,2019-06-08T01:24:00Z,27.4847,-97.3181,0.891,11111222 
TCOON,ioos:station:TCOON:013:1,2019-06-08T02:24:00Z,27.4847,-97.3181,0.886,11111222 
TCOON,ioos:station:TCOON:013:1,2019-06-08T03:24:00Z,27.4847,-97.3181,0.887,11111222 
TCOON,ioos:station:TCOON:013:1,2019-06-08T04:24:00Z,27.4847,-97.3181,0.887,11111222 
TCOON,ioos:station:TCOON:013:1,2019-06-08T05:24:00Z,27.4847,-97.3181,0.887,11111222 
TCOON,ioos:station:TCOON:013:1,2019-06-08T06:24:00Z,27.4847,-97.3181,0.885,11111222 
TCOON,ioos:station:TCOON:013:1,2019-06-08T07:24:00Z,27.4847,-97.3181,0.883,11111222 
TCOON,ioos:station:TCOON:013:1,2019-06-08T08:24:00Z,27.4847,-97.3181,0.886,11111222 
TCOON,ioos:station:TCOON:013:1,2019-06-08T09:24:00Z,27.4847,-97.3181,0.881,11111222 
TCOON,ioos:station:TCOON:013:1,2019-06-08T10:24:00Z,27.4847,-97.3181,0.877,11111222 
TCOON,ioos:station:TCOON:013:1,2019-06-08T11:24:00Z,27.4847,-97.3181,0.867,11111222 
TCOON,ioos:station:TCOON:013:1,2019-06-08T12:24:00Z,27.4847,-97.3181,0.86,11111222 
TCOON,ioos:station:TCOON:013:1,2019-06-08T13:24:00Z,27.4847,-97.3181,0.857,11111222 
TCOON,ioos:station:TCOON:013:1,2019-06-08T14:30:00Z,27.4847,-97.3181,0.851,11111222 
TCOON,ioos:station:TCOON:013:1,2019-06-08T15:24:00Z,27.4847,-97.3181,0.847,11111222 
TCOON,ioos:station:TCOON:013:1,2019-06-08T16:30:00Z,27.4847,-97.3181,0.845,11111222 
TCOON,ioos:station:TCOON:013:1,2019-06-08T17:36:00Z,27.4847,-97.3181,0.846,11111222 
TCOON,ioos:station:TCOON:013:1,2019-06-08T18:24:00Z,27.4847,-97.3181,0.847,11111222 
TCOON,ioos:station:TCOON:013:1,2019-06-09T00:12:00Z,27.4847,-97.3181,0.83,11111222 
TCOON,ioos:station:TCOON:013:1,2019-06-09T01:24:00Z,27.4847,-97.3181,0.832,11111222 
TCOON,ioos:station:TCOON:013:1,2019-06-09T02:24:00Z,27.4847,-97.3181,0.843,11111222 
TCOON,ioos:station:TCOON:013:1,2019-06-09T03:24:00Z,27.4847,-97.3181,0.844,11111222 
TCOON,ioos:station:TCOON:013:1,2019-06-09T04:24:00Z,27.4847,-97.3181,0.848,11111222 
TCOON,ioos:station:TCOON:013:1,2019-06-09T05:24:00Z,27.4847,-97.3181,0.851,11111222 
TCOON,ioos:station:TCOON:013:1,2019-06-09T06:24:00Z,27.4847,-97.3181,0.85,11111222 
TCOON,ioos:station:TCOON:013:1,2019-06-09T07:24:00Z,27.4847,-97.3181,0.851,11111222 
TCOON,ioos:station:TCOON:013:1,2019-06-09T08:24:00Z,27.4847,-97.3181,0.849,11111222 
TCOON,ioos:station:TCOON:013:1,2019-06-09T09:24:00Z,27.4847,-97.3181,0.847,11111222 
TCOON,ioos:station:TCOON:013:1,2019-06-09T10:24:00Z,27.4847,-97.3181,0.845,11111222 
TCOON,ioos:station:TCOON:013:1,2019-06-09T11:24:00Z,27.4847,-97.3181,0.842,11111222 
TCOON,ioos:station:TCOON:013:1,2019-06-09T12:24:00Z,27.4847,-97.3181,0.843,11111222 
TCOON,ioos:station:TCOON:013:1,2019-06-09T13:24:00Z,27.4847,-97.3181,0.837,11111222 
TCOON,ioos:station:TCOON:013:1,2019-06-09T14:30:00Z,27.4847,-97.3181,0.835,11111222 
TCOON,ioos:station:TCOON:013:1,2019-06-09T15:24:00Z,27.4847,-97.3181,0.832,11111222 
TCOON,ioos:station:TCOON:013:1,2019-06-09T16:24:00Z,27.4847,-97.3181,0.83,11111222 
TCOON,ioos:station:TCOON:013:1,2019-06-09T17:24:00Z,27.4847,-97.3181,0.828,11111222 
TCOON,ioos:station:TCOON:013:1,2019-06-09T18:24:00Z,27.4847,-97.3181,0.826,11111222 
TCOON,ioos:station:TCOON:013:1,2019-06-09T19:30:00Z,27.4847,-97.3181,0.823,11111222 
TCOON,ioos:station:TCOON:013:1,2019-06-09T20:24:00Z,27.4847,-97.3181,0.822,11111222 
TCOON,ioos:station:TCOON:013:1,2019-06-09T21:24:00Z,27.4847,-97.3181,0.813,11111222 
TCOON,ioos:station:TCOON:013:1,2019-06-09T22:30:00Z,27.4847,-97.3181,0.821,11111222 
TCOON,ioos:station:TCOON:013:1,2019-06-09T23:24:00Z,27.4847,-97.3181,0.823,11111222 
TCOON,ioos:station:TCOON:013:1,2019-06-10T00:24:00Z,27.4847,-97.3181,0.823,11111222 
TCOON,ioos:station:TCOON:013:1,2019-06-10T01:24:00Z,27.4847,-97.3181,0.825,11111222 
TCOON,ioos:station:TCOON:013:1,2019-06-10T02:24:00Z,27.4847,-97.3181,0.822,11111222 
TCOON,ioos:station:TCOON:013:1,2019-06-10T03:24:00Z,27.4847,-97.3181,0.817,11111222 
TCOON,ioos:station:TCOON:013:1,2019-06-10T04:24:00Z,27.4847,-97.3181,0.812,11111222 
TCOON,ioos:station:TCOON:013:1,2019-06-10T05:24:00Z,27.4847,-97.3181,0.805,11111222 
TCOON,ioos:station:TCOON:013:1,2019-06-10T06:24:00Z,27.4847,-97.3181,0.803,11111222 
TCOON,ioos:station:TCOON:013:1,2019-06-10T07:24:00Z,27.4847,-97.3181,0.807,11111222 
TCOON,ioos:station:TCOON:013:1,2019-06-10T08:24:00Z,27.4847,-97.3181,0.81,11111222 
TCOON,ioos:station:TCOON:013:1,2019-06-10T09:24:00Z,27.4847,-97.3181,0.814,11111222 
TCOON,ioos:station:TCOON:013:1,2019-06-10T10:24:00Z,27.4847,-97.3181,0.811,11111222 
TCOON,ioos:station:TCOON:013:1,2019-06-10T11:24:00Z,27.4847,-97.3181,0.811,11111222 
TCOON,ioos:station:TCOON:013:1,2019-06-10T12:24:00Z,27.4847,-97.3181,0.806,11111222 
TCOON,ioos:station:TCOON:013:1,2019-06-10T13:30:00Z,27.4847,-97.3181,0.807,11111222 
TCOON,ioos:station:TCOON:013:1,2019-06-10T14:24:00Z,27.4847,-97.3181,0.799,11111222 
TCOON,ioos:station:TCOON:013:1,2019-06-10T15:30:00Z,27.4847,-97.3181,0.794,11111222 
TCOON,ioos:station:TCOON:013:1,2019-06-10T16:30:00Z,27.4847,-97.3181,0.785,11111222 
TCOON,ioos:station:TCOON:013:1,2019-06-10T17:30:00Z,27.4847,-97.3181,0.78,11111222 
TCOON,ioos:station:TCOON:013:1,2019-06-10T18:30:00Z,27.4847,-97.3181,0.775,11111222 
TCOON,ioos:station:TCOON:013:1,2019-06-10T19:24:00Z,27.4847,-97.3181,0.773,11111222 
TCOON,ioos:station:TCOON:013:1,2019-06-10T20:30:00Z,27.4847,-97.3181,0.778,11111222 
TCOON,ioos:station:TCOON:013:1,2019-06-10T21:30:00Z,27.4847,-97.3181,0.793,11111222 
TCOON,ioos:station:TCOON:013:1,2019-06-10T22:24:00Z,27.4847,-97.3181,0.799,11111222 
TCOON,ioos:station:TCOON:013:1,2019-06-10T23:24:00Z,27.4847,-97.3181,0.798,11111222 
TCOON,ioos:station:TCOON:013:1,2019-06-11T00:24:00Z,27.4847,-97.3181,0.805,11111222 
TCOON,ioos:station:TCOON:013:1,2019-06-11T01:24:00Z,27.4847,-97.3181,0.81,11111222 
TCOON,ioos:station:TCOON:013:1,2019-06-11T02:30:00Z,27.4847,-97.3181,0.782,11111222 
TCOON,ioos:station:TCOON:013:1,2019-06-11T03:24:00Z,27.4847,-97.3181,0.814,11111222 
TCOON,ioos:station:TCOON:013:1,2019-06-11T04:24:00Z,27.4847,-97.3181,0.827,11111222 
TCOON,ioos:station:TCOON:013:1,2019-06-11T05:24:00Z,27.4847,-97.3181,0.854,11111222 
TCOON,ioos:station:TCOON:013:1,2019-06-11T06:24:00Z,27.4847,-97.3181,0.856,11111222 
TCOON,ioos:station:TCOON:013:1,2019-06-11T07:24:00Z,27.4847,-97.3181,0.854,11111222 
TCOON,ioos:station:TCOON:013:1,2019-06-11T08:24:00Z,27.4847,-97.3181,0.842,11111222 
TCOON,ioos:station:TCOON:013:1,2019-06-11T09:24:00Z,27.4847,-97.3181,0.84,11111222 
TCOON,ioos:station:TCOON:013:1,2019-06-11T10:24:00Z,27.4847,-97.3181,0.823,11111222 
TCOON,ioos:station:TCOON:013:1,2019-06-11T11:24:00Z,27.4847,-97.3181,0.825,11111222 
TCOON,ioos:station:TCOON:013:1,2019-06-11T12:42:00Z,27.4847,-97.3181,0.815,11111222 
TCOON,ioos:station:TCOON:013:1,2019-06-11T13:30:00Z,27.4847,-97.3181,0.81,11111222 
TCOON,ioos:station:TCOON:013:1,2019-06-11T14:30:00Z,27.4847,-97.3181,0.808,11111222 
TCOON,ioos:station:TCOON:013:1,2019-06-11T15:30:00Z,27.4847,-97.3181,0.806,11111222 
TCOON,ioos:station:TCOON:013:1,2019-06-11T16:24:00Z,27.4847,-97.3181,0.801,11111222 
TCOON,ioos:station:TCOON:013:1,2019-06-11T19:24:00Z,27.4847,-97.3181,0.803,11111222 
TCOON,ioos:station:TCOON:013:1,2019-06-11T20:24:00Z,27.4847,-97.3181,0.78,11111222 
TCOON,ioos:station:TCOON:013:1,2019-06-11T21:30:00Z,27.4847,-97.3181,0.817,11111222 
TCOON,ioos:station:TCOON:013:1,2019-06-11T22:24:00Z,27.4847,-97.3181,0.813,11111222 
TCOON,ioos:station:TCOON:013:1,2019-06-11T23:24:00Z,27.4847,-97.3181,0.816,11111222 
TCOON,ioos:station:TCOON:013:1,2019-06-12T00:24:00Z,27.4847,-97.3181,0.83,11111222 
TCOON,ioos:station:TCOON:013:1,2019-06-12T01:24:00Z,27.4847,-97.3181,0.841,11111222 
TCOON,ioos:station:TCOON:013:1,2019-06-12T02:24:00Z,27.4847,-97.3181,0.85,11111222 
TCOON,ioos:station:TCOON:013:1,2019-06-12T03:24:00Z,27.4847,-97.3181,0.851,11111222 
TCOON,ioos:station:TCOON:013:1,2019-06-12T04:24:00Z,27.4847,-97.3181,0.861,11111222 
TCOON,ioos:station:TCOON:013:1,2019-06-12T05:24:00Z,27.4847,-97.3181,0.863,11111222 
TCOON,ioos:station:TCOON:013:1,2019-06-12T06:24:00Z,27.4847,-97.3181,0.859,11111222 
TCOON,ioos:station:TCOON:013:1,2019-06-12T07:24:00Z,27.4847,-97.3181,0.859,11111222 
TCOON,ioos:station:TCOON:013:1,2019-06-12T08:24:00Z,27.4847,-97.3181,0.859,11111222 
TCOON,ioos:station:TCOON:013:1,2019-06-12T09:24:00Z,27.4847,-97.3181,0.864,11111222 
TCOON,ioos:station:TCOON:013:1,2019-06-12T10:30:00Z,27.4847,-97.3181,0.873,11111222 
TCOON,ioos:station:TCOON:013:1,2019-06-12T11:24:00Z,27.4847,-97.3181,0.88,11111222 
TCOON,ioos:station:TCOON:013:1,2019-06-12T12:30:00Z,27.4847,-97.3181,0.897,11111222 
TCOON,ioos:station:TCOON:013:1,2019-06-12T13:30:00Z,27.4847,-97.3181,0.899,11111222 
TCOON,ioos:station:TCOON:013:1,2019-06-12T14:30:00Z,27.4847,-97.3181,0.897,11111222 
TCOON,ioos:station:TCOON:013:1,2019-06-12T15:24:00Z,27.4847,-97.3181,0.898,11111222 
TCOON,ioos:station:TCOON:013:1,2019-06-12T16:30:00Z,27.4847,-97.3181,0.893,11111222 
TCOON,ioos:station:TCOON:013:1,2019-06-12T17:24:00Z,27.4847,-97.3181,0.894,11111222 
TCOON,ioos:station:TCOON:013:1,2019-06-12T18:30:00Z,27.4847,-97.3181,0.893,11111222 
TCOON,ioos:station:TCOON:013:1,2019-06-12T19:30:00Z,27.4847,-97.3181,0.889,11111222 
TCOON,ioos:station:TCOON:013:1,2019-06-12T20:30:00Z,27.4847,-97.3181,0.889,11111222 
TCOON,ioos:station:TCOON:013:1,2019-06-12T21:24:00Z,27.4847,-97.3181,0.887,11111222 
TCOON,ioos:station:TCOON:013:1,2019-06-12T22:30:00Z,27.4847,-97.3181,0.889,11111222 
TCOON,ioos:station:TCOON:013:1,2019-06-12T23:30:00Z,27.4847,-97.3181,0.885,11111222 